| time (UTC) | temp F | wind direction | speed MPH | gust MPH | rain 1hr in | rain 24hr in | rain mn in | humidity % | barometer mb |
| 20260509074504 | 53 | 164 | 0.0 | 0.0 | 0.00 | 0.00 | 0.00 | 75 | 1012.3 |
| 20260509074003 | 53 | 164 | 0.0 | 0.0 | 0.00 | 0.00 | 0.00 | 75 | 1012.3 |
| 20260509073003 | 53 | 164 | 0.0 | 0.0 | 0.00 | 0.00 | 0.00 | 75 | 1012.3 |
| 20260509072004 | 53 | 164 | 0.0 | 0.0 | 0.00 | 0.00 | 0.00 | 75 | 1012.3 |
| 20260509070504 | 52 | 164 | 0.0 | 0.0 | 0.00 | 0.01 | 0.00 | 74 | 1012.3 |
| 20260509070003 | 52 | 164 | 0.0 | 0.0 | 0.00 | 0.01 | 0.00 | 74 | 1012.5 |
| 20260509065503 | 52 | 164 | 0.0 | 0.0 | 0.00 | 0.01 | 0.00 | 74 | 1012.5 |
| 20260509065003 | 52 | 164 | 0.0 | 0.0 | 0.00 | 0.01 | 0.00 | 73 | 1012.5 |
| 20260509064503 | 52 | 164 | 0.0 | 0.0 | 0.00 | 0.01 | 0.00 | 73 | 1012.5 |
| 20260509063003 | 52 | 187 | 0.0 | 0.0 | 0.00 | 0.01 | 0.00 | 73 | 1013.0 |
| 20260509062513 | 52 | 181 | 0.0 | 0.0 | 0.00 | 0.01 | 0.00 | 72 | 1013.1 |
| 20260509062005 | 52 | 186 | 0.0 | 0.0 | 0.00 | 0.01 | 0.00 | 73 | 1013.1 |
| 20260509061005 | 52 | 182 | 0.0 | 1.0 | 0.00 | 0.01 | 0.00 | 72 | 1013.0 |
| 20260509060503 | 52 | 172 | 0.0 | 1.0 | 0.00 | 0.01 | 0.00 | 72 | 1012.9 |
| 20260509055003 | 52 | 177 | 0.0 | 3.0 | 0.00 | 0.01 | 0.00 | 72 | 1013.1 |
| 20260509054504 | 52 | 182 | 0.0 | 0.0 | 0.00 | 0.01 | 0.00 | 72 | 1013.0 |
| 20260509054003 | 52 | 182 | 0.0 | 0.0 | 0.00 | 0.01 | 0.00 | 72 | 1012.9 |
| 20260509053503 | 52 | 182 | 0.0 | 0.0 | 0.00 | 0.01 | 0.00 | 71 | 1012.8 |
| 20260509053003 | 52 | 182 | 0.0 | 0.0 | 0.00 | 0.01 | 0.00 | 71 | 1012.8 |
| 20260509052504 | 52 | 182 | 0.0 | 0.0 | 0.00 | 0.01 | 0.00 | 71 | 1012.8 |
| 20260509052004 | 52 | 182 | 0.0 | 0.0 | 0.00 | 0.01 | 0.00 | 71 | 1012.8 |
| 20260509051503 | 52 | 182 | 0.0 | 0.0 | 0.00 | 0.01 | 0.00 | 71 | 1012.8 |
| 20260509051003 | 52 | 182 | 0.0 | 0.0 | 0.00 | 0.01 | 0.00 | 71 | 1012.9 |
| 20260509050503 | 52 | 182 | 0.0 | 0.0 | 0.00 | 0.01 | 0.00 | 70 | 1012.8 |
| 20260509050004 | 52 | 182 | 0.0 | 0.0 | 0.00 | 0.01 | 0.00 | 70 | 1012.9 |
| 20260509045503 | 53 | 182 | 0.0 | 0.0 | 0.00 | 0.01 | 0.00 | 70 | 1012.9 |
| 20260509045003 | 53 | 182 | 0.0 | 0.0 | 0.00 | 0.01 | 0.00 | 70 | 1013.0 |
| 20260509044004 | 53 | 182 | 0.0 | 0.0 | 0.00 | 0.01 | 0.00 | 69 | 1012.9 |
| 20260509043005 | 53 | 182 | 0.0 | 0.0 | 0.00 | 0.01 | 0.00 | 69 | 1012.8 |
| 20260509042503 | 53 | 182 | 0.0 | 0.0 | 0.00 | 0.01 | 0.00 | 69 | 1012.8 |
| 20260509042004 | 54 | 182 | 0.0 | 0.0 | 0.00 | 0.01 | 0.00 | 69 | 1012.8 |
| 20260509041005 | 54 | 182 | 0.0 | 0.0 | 0.00 | 0.01 | 0.00 | 69 | 1012.9 |
| 20260509040504 | 54 | 182 | 0.0 | 1.0 | 0.00 | 0.01 | 0.00 | 69 | 1013.0 |
| 20260509040003 | 54 | 182 | 0.0 | 1.0 | 0.00 | 0.01 | 0.00 | 69 | 1013.0 |
| 20260509034003 | 54 | 182 | 0.0 | 2.0 | 0.00 | 0.01 | 0.01 | 69 | 1013.1 |
| 20260509033004 | 54 | 194 | 0.0 | 0.0 | 0.00 | 0.01 | 0.01 | 69 | 1013.2 |
| 20260509032503 | 54 | 194 | 0.0 | 1.0 | 0.00 | 0.01 | 0.01 | 69 | 1013.2 |
| 20260509032003 | 54 | 194 | 0.0 | 1.0 | 0.00 | 0.01 | 0.01 | 69 | 1013.2 |
| 20260509031503 | 54 | 194 | 0.0 | 1.0 | 0.00 | 0.01 | 0.01 | 69 | 1013.2 |
| 20260509031003 | 54 | 172 | 0.0 | 1.0 | 0.00 | 0.01 | 0.01 | 69 | 1013.2 |
| 20260509025503 | 54 | 172 | 0.0 | 2.0 | 0.00 | 0.01 | 0.01 | 69 | 1013.1 |
| 20260509024503 | 54 | 161 | 0.0 | 1.0 | 0.00 | 0.01 | 0.01 | 69 | 1013.1 |
| 20260509024003 | 54 | 171 | 0.0 | 3.0 | 0.00 | 0.01 | 0.01 | 69 | 1013.0 |
| 20260509023003 | 54 | 150 | 0.0 | 2.0 | 0.00 | 0.01 | 0.01 | 69 | 1013.1 |
| 20260509022503 | 54 | 202 | 0.0 | 2.0 | 0.00 | 0.01 | 0.01 | 68 | 1013.2 |
| 20260509022003 | 54 | 181 | 0.0 | 3.0 | 0.00 | 0.01 | 0.01 | 68 | 1013.2 |
| 20260509021004 | 54 | 162 | 0.0 | 0.0 | 0.00 | 0.01 | 0.01 | 68 | 1013.0 |
| 20260509020504 | 54 | 173 | 0.0 | 2.0 | 0.00 | 0.01 | 0.01 | 68 | 1013.1 |
| 20260509020003 | 54 | 182 | 0.0 | 2.0 | 0.00 | 0.01 | 0.01 | 68 | 1013.0 |
| 20260509015503 | 54 | 172 | 0.0 | 2.0 | 0.00 | 0.01 | 0.01 | 68 | 1013.0 |
| 20260509015004 | 54 | 159 | 0.0 | 2.0 | 0.00 | 0.01 | 0.01 | 68 | 1012.9 |
| 20260509014003 | 54 | 172 | 0.0 | 1.0 | 0.00 | 0.01 | 0.01 | 67 | 1012.8 |
| 20260509013504 | 54 | 172 | 0.0 | 0.0 | 0.00 | 0.01 | 0.01 | 67 | 1012.7 |
| 20260509013003 | 54 | 166 | 0.0 | 1.0 | 0.00 | 0.01 | 0.01 | 67 | 1012.6 |
| 20260509012503 | 54 | 166 | 0.0 | 1.0 | 0.00 | 0.01 | 0.01 | 67 | 1012.6 |
| 20260509012004 | 54 | 155 | 0.0 | 2.0 | 0.00 | 0.01 | 0.01 | 67 | 1012.7 |
| 20260509011504 | 54 | 163 | 0.0 | 0.0 | 0.00 | 0.01 | 0.01 | 66 | 1012.6 |
| 20260509011004 | 54 | 148 | 0.0 | 0.0 | 0.00 | 0.01 | 0.01 | 65 | 1012.5 |
| 20260509010004 | 55 | 168 | 0.0 | 0.0 | 0.00 | 0.01 | 0.01 | 64 | 1012.4 |
| 20260509005504 | 55 | 168 | 0.0 | 0.0 | 0.00 | 0.01 | 0.01 | 63 | 1012.3 |
| 20260509005003 | 55 | 177 | 0.0 | 2.0 | 0.00 | 0.01 | 0.01 | 63 | 1012.3 |
| 20260509004504 | 55 | 162 | 1.0 | 2.0 | 0.00 | 0.01 | 0.01 | 62 | 1012.2 |
| 20260509004003 | 55 | 158 | 1.0 | 2.0 | 0.00 | 0.01 | 0.01 | 61 | 1012.1 |
| 20260509003503 | 56 | 182 | 1.0 | 2.0 | 0.00 | 0.01 | 0.01 | 59 | 1012.0 |
| 20260509003004 | 56 | 190 | 0.0 | 0.0 | 0.00 | 0.01 | 0.01 | 58 | 1012.0 |
| 20260509001503 | 57 | 190 | 0.0 | 0.0 | 0.00 | 0.01 | 0.01 | 55 | 1011.8 |
| 20260509000504 | 57 | 190 | 0.0 | 0.0 | 0.00 | 0.01 | 0.01 | 54 | 1011.8 |
| 20260509000003 | 58 | 190 | 0.0 | 0.0 | 0.00 | 0.01 | 0.01 | 54 | 1011.8 |
| 20260508235503 | 58 | 190 | 0.0 | 0.0 | 0.00 | 0.01 | 0.01 | 54 | 1011.7 |
| 20260508235003 | 58 | 190 | 0.0 | 0.0 | 0.00 | 0.01 | 0.01 | 53 | 1011.7 |
| 20260508234503 | 58 | 190 | 0.0 | 1.0 | 0.00 | 0.01 | 0.01 | 53 | 1011.5 |
| 20260508234003 | 58 | 190 | 0.0 | 1.0 | 0.00 | 0.01 | 0.01 | 52 | 1011.4 |
| 20260508233004 | 59 | 225 | 0.0 | 2.0 | 0.00 | 0.01 | 0.01 | 52 | 1011.4 |
| 20260508232503 | 59 | 218 | 1.0 | 2.0 | 0.00 | 0.01 | 0.01 | 52 | 1011.4 |
| 20260508232003 | 59 | 235 | 1.0 | 3.0 | 0.00 | 0.01 | 0.01 | 51 | 1011.3 |
| 20260508231004 | 59 | 250 | 0.0 | 0.0 | 0.00 | 0.01 | 0.01 | 52 | 1011.2 |
| 20260508230505 | 60 | 280 | 0.0 | 0.0 | 0.00 | 0.01 | 0.01 | 51 | 1011.3 |
| 20260508230004 | 60 | 285 | 1.0 | 3.0 | 0.00 | 0.01 | 0.01 | 50 | 1011.3 |
| 20260508225503 | 60 | 242 | 1.0 | 3.0 | 0.00 | 0.01 | 0.01 | 50 | 1011.3 |
| 20260508225003 | 60 | 308 | 0.0 | 2.0 | 0.00 | 0.01 | 0.01 | 51 | 1011.2 |
| 20260508224503 | 60 | 338 | 0.0 | 2.0 | 0.00 | 0.01 | 0.01 | 49 | 1011.2 |
| 20260508224004 | 60 | 347 | 0.0 | 2.0 | 0.00 | 0.01 | 0.01 | 49 | 1011.2 |
| 20260508223504 | 60 | 326 | 1.0 | 3.0 | 0.00 | 0.01 | 0.01 | 47 | 1011.2 |
| 20260508223005 | 60 | 351 | 1.0 | 3.0 | 0.00 | 0.01 | 0.01 | 48 | 1011.1 |
| 20260508222503 | 60 | 6 | 1.0 | 3.0 | 0.00 | 0.01 | 0.01 | 48 | 1011.1 |
| 20260508222003 | 61 | 4 | 1.0 | 3.0 | 0.00 | 0.01 | 0.01 | 47 | 1011.0 |
| 20260508221503 | 61 | 10 | 1.0 | 3.0 | 0.00 | 0.01 | 0.01 | 47 | 1011.0 |
| 20260508221003 | 61 | 269 | 2.0 | 3.0 | 0.00 | 0.01 | 0.01 | 48 | 1011.1 |
| 20260508220503 | 61 | 307 | 1.0 | 3.0 | 0.00 | 0.01 | 0.01 | 48 | 1011.1 |
| 20260508220004 | 61 | 254 | 2.0 | 5.0 | 0.00 | 0.01 | 0.01 | 48 | 1011.1 |
| 20260508215504 | 61 | 285 | 1.0 | 3.0 | 0.00 | 0.01 | 0.01 | 46 | 1011.2 |
| 20260508214503 | 61 | 345 | 1.0 | 3.0 | 0.00 | 0.01 | 0.01 | 48 | 1011.3 |
| 20260508213503 | 61 | 292 | 2.0 | 3.0 | 0.00 | 0.01 | 0.01 | 51 | 1011.4 |
| 20260508213003 | 61 | 34 | 1.0 | 3.0 | 0.00 | 0.01 | 0.01 | 50 | 1011.2 |
| 20260508212503 | 60 | 275 | 0.0 | 0.0 | 0.00 | 0.01 | 0.01 | 50 | 1011.4 |
| 20260508212003 | 60 | 1 | 1.0 | 3.0 | 0.00 | 0.01 | 0.01 | 50 | 1011.4 |
| 20260508211504 | 61 | 13 | 2.0 | 3.0 | 0.00 | 0.01 | 0.01 | 49 | 1011.4 |
| 20260508211005 | 61 | 29 | 2.0 | 3.0 | 0.00 | 0.01 | 0.01 | 48 | 1011.4 |
| 20260508210504 | 61 | 274 | 2.0 | 3.0 | 0.00 | 0.01 | 0.01 | 48 | 1011.4 |
| 20260508210004 | 61 | 264 | 2.0 | 5.0 | 0.00 | 0.01 | 0.01 | 48 | 1011.4 |
| 20260508205503 | 61 | 346 | 2.0 | 5.0 | 0.00 | 0.01 | 0.01 | 48 | 1011.4 |
| 20260508205004 | 61 | 9 | 2.0 | 5.0 | 0.00 | 0.01 | 0.01 | 48 | 1011.3 |
| 20260508204004 | 61 | 286 | 2.0 | 5.0 | 0.00 | 0.01 | 0.01 | 47 | 1011.4 |
| 20260508203504 | 61 | 290 | 2.0 | 5.0 | 0.00 | 0.01 | 0.01 | 47 | 1011.4 |
| 20260508203004 | 61 | 310 | 2.0 | 5.0 | 0.00 | 0.01 | 0.01 | 46 | 1011.3 |
| 20260508202004 | 63 | 320 | 3.0 | 7.0 | 0.00 | 0.01 | 0.01 | 43 | 1011.1 |
| 20260508201503 | 63 | 303 | 2.0 | 9.0 | 0.00 | 0.01 | 0.01 | 44 | 1011.2 |
| 20260508201004 | 63 | 15 | 3.0 | 10.0 | 0.00 | 0.01 | 0.01 | 45 | 1011.2 |
| 20260508200004 | 62 | 332 | 2.0 | 7.0 | 0.00 | 0.01 | 0.01 | 45 | 1011.2 |
| 20260508195505 | 61 | 279 | 2.0 | 7.0 | 0.00 | 0.01 | 0.01 | 48 | 1011.1 |
| 20260508195005 | 60 | 279 | 2.0 | 7.0 | 0.00 | 0.01 | 0.01 | 48 | 1011.3 |
| 20260508194003 | 60 | 217 | 1.0 | 5.0 | 0.00 | 0.01 | 0.01 | 48 | 1011.5 |
| 20260508193504 | 60 | 297 | 2.0 | 7.0 | 0.00 | 0.01 | 0.01 | 45 | 1011.6 |
| 20260508192503 | 61 | 244 | 2.0 | 10.0 | 0.00 | 0.01 | 0.01 | 40 | 1011.2 |
| 20260508192003 | 62 | 231 | 4.0 | 9.0 | 0.00 | 0.01 | 0.01 | 39 | 1011.1 |
| 20260508191503 | 62 | 309 | 2.0 | 5.0 | 0.00 | 0.01 | 0.01 | 39 | 1011.0 |
| 20260508191004 | 63 | 331 | 1.0 | 6.0 | 0.00 | 0.01 | 0.01 | 38 | 1011.0 |
| 20260508190004 | 64 | 304 | 2.0 | 8.0 | 0.00 | 0.01 | 0.01 | 36 | 1010.9 |
| 20260508185505 | 64 | 250 | 3.0 | 8.0 | 0.00 | 0.01 | 0.01 | 39 | 1010.9 |
| 20260508185004 | 63 | 280 | 3.0 | 6.0 | 0.00 | 0.01 | 0.01 | 38 | 1010.9 |
| 20260508184505 | 63 | 251 | 3.0 | 6.0 | 0.00 | 0.01 | 0.01 | 38 | 1011.0 |
| 20260508184003 | 63 | 337 | 3.0 | 7.0 | 0.00 | 0.01 | 0.01 | 38 | 1010.9 |
| 20260508183504 | 63 | 352 | 4.0 | 8.0 | 0.00 | 0.01 | 0.01 | 36 | 1010.9 |
| 20260508182504 | 64 | 242 | 3.0 | 7.0 | 0.00 | 0.01 | 0.01 | 35 | 1011.0 |
| 20260508182003 | 65 | 294 | 3.0 | 8.0 | 0.00 | 0.01 | 0.01 | 35 | 1010.9 |
| 20260508181504 | 65 | 314 | 3.0 | 8.0 | 0.00 | 0.01 | 0.01 | 34 | 1010.8 |
| 20260508181004 | 66 | 321 | 3.0 | 9.0 | 0.00 | 0.01 | 0.01 | 37 | 1010.8 |
| 20260508180503 | 65 | 279 | 3.0 | 14.0 | 0.00 | 0.01 | 0.01 | 35 | 1010.9 |
| 20260508180004 | 65 | 220 | 5.0 | 14.0 | 0.00 | 0.01 | 0.01 | 37 | 1010.9 |
| 20260508175504 | 64 | 247 | 3.0 | 12.0 | 0.00 | 0.01 | 0.01 | 39 | 1010.8 |
| 20260508175003 | 64 | 272 | 3.0 | 9.0 | 0.00 | 0.01 | 0.01 | 36 | 1010.8 |
| 20260508174504 | 64 | 225 | 6.0 | 13.0 | 0.00 | 0.01 | 0.01 | 36 | 1010.8 |
| 20260508174004 | 64 | 334 | 3.0 | 7.0 | 0.00 | 0.01 | 0.01 | 36 | 1010.9 |
| 20260508173504 | 65 | 328 | 2.0 | 10.0 | 0.00 | 0.01 | 0.01 | 35 | 1010.9 |
| 20260508173004 | 65 | 299 | 5.0 | 9.0 | 0.00 | 0.01 | 0.01 | 36 | 1010.8 |
| 20260508172504 | 65 | 207 | 4.0 | 7.0 | 0.00 | 0.01 | 0.01 | 40 | 1010.8 |
| 20260508172004 | 65 | 299 | 2.0 | 9.0 | 0.00 | 0.01 | 0.01 | 36 | 1010.8 |
| 20260508171504 | 64 | 262 | 2.0 | 9.0 | 0.00 | 0.01 | 0.01 | 36 | 1011.0 |
| 20260508171004 | 64 | 224 | 2.0 | 8.0 | 0.00 | 0.01 | 0.01 | 36 | 1010.9 |
| 20260508164503 | 65 | 329 | 3.0 | 7.0 | 0.00 | 0.01 | 0.01 | 37 | 1011.0 |
| 20260508164004 | 65 | 230 | 3.0 | 13.0 | 0.00 | 0.01 | 0.01 | 35 | 1011.1 |
| 20260508163504 | 65 | 317 | 3.0 | 7.0 | 0.00 | 0.01 | 0.01 | 36 | 1011.3 |
| 20260508163004 | 65 | 314 | 1.0 | 9.0 | 0.00 | 0.01 | 0.01 | 36 | 1011.4 |
| 20260508162505 | 64 | 223 | 3.0 | 7.0 | 0.00 | 0.01 | 0.01 | 39 | 1011.4 |
| 20260508162005 | 64 | 263 | 2.0 | 8.0 | 0.00 | 0.01 | 0.01 | 36 | 1011.5 |
| 20260508161503 | 63 | 293 | 3.0 | 7.0 | 0.00 | 0.01 | 0.01 | 40 | 1011.5 |
| 20260508161004 | 63 | 287 | 2.0 | 6.0 | 0.00 | 0.01 | 0.01 | 37 | 1011.5 |
| 20260508160504 | 63 | 238 | 3.0 | 7.0 | 0.00 | 0.01 | 0.01 | 39 | 1011.6 |
| 20260508160003 | 62 | 264 | 2.0 | 5.0 | 0.00 | 0.01 | 0.01 | 39 | 1011.6 |
| 20260508155503 | 62 | 283 | 3.0 | 7.0 | 0.00 | 0.01 | 0.01 | 39 | 1011.7 |
| 20260508155003 | 62 | 252 | 2.0 | 7.0 | 0.00 | 0.01 | 0.01 | 38 | 1011.7 |
| 20260508154004 | 62 | 244 | 2.0 | 7.0 | 0.00 | 0.01 | 0.01 | 37 | 1011.9 |
| 20260508153504 | 61 | 290 | 1.0 | 3.0 | 0.00 | 0.01 | 0.01 | 40 | 1011.9 |
| 20260508153004 | 61 | 312 | 1.0 | 3.0 | 0.00 | 0.01 | 0.01 | 37 | 1011.8 |
| 20260508152503 | 61 | 273 | 2.0 | 7.0 | 0.00 | 0.01 | 0.01 | 42 | 1011.8 |
| 20260508152003 | 61 | 359 | 1.0 | 5.0 | 0.00 | 0.01 | 0.01 | 41 | 1011.9 |
| 20260508151503 | 61 | 228 | 3.0 | 8.0 | 0.00 | 0.01 | 0.01 | 45 | 1011.9 |
| 20260508151003 | 60 | 243 | 3.0 | 6.0 | 0.00 | 0.01 | 0.01 | 45 | 1012.0 |
| 20260508150004 | 59 | 263 | 2.0 | 6.0 | 0.00 | 0.01 | 0.01 | 44 | 1012.1 |
| 20260508145504 | 59 | 308 | 2.0 | 7.0 | 0.00 | 0.01 | 0.01 | 45 | 1012.0 |
| 20260508145002 | 59 | 264 | 3.0 | 7.0 | 0.00 | 0.01 | 0.01 | 45 | 1012.1 |
| 20260508144503 | 59 | 278 | 2.0 | 7.0 | 0.00 | 0.01 | 0.01 | 49 | 1012.0 |
| 20260508144002 | 58 | 331 | 2.0 | 5.0 | 0.00 | 0.01 | 0.01 | 47 | 1012.1 |
| 20260508143502 | 58 | 287 | 2.0 | 6.0 | 0.00 | 0.01 | 0.01 | 47 | 1012.0 |
| 20260508143001 | 58 | 269 | 3.0 | 6.0 | 0.00 | 0.01 | 0.01 | 49 | 1012.1 |
| 20260508142502 | 58 | 248 | 2.0 | 7.0 | 0.00 | 0.01 | 0.01 | 49 | 1012.0 |
| 20260508141503 | 57 | 255 | 1.0 | 3.0 | 0.00 | 0.01 | 0.01 | 50 | 1011.9 |
| 20260508140502 | 57 | 342 | 1.0 | 3.0 | 0.00 | 0.01 | 0.01 | 51 | 1011.9 |
| 20260508140002 | 56 | 4 | 2.0 | 5.0 | 0.00 | 0.01 | 0.01 | 51 | 1011.9 |
| 20260508134002 | 55 | 262 | 1.0 | 3.0 | 0.00 | 0.01 | 0.01 | 56 | 1011.9 |
| 20260508133502 | 54 | 10 | 1.0 | 3.0 | 0.00 | 0.01 | 0.01 | 57 | 1011.9 |
| 20260508133003 | 54 | 40 | 1.0 | 5.0 | 0.00 | 0.01 | 0.01 | 62 | 1011.9 |
| 20260508132502 | 54 | 58 | 1.0 | 7.0 | 0.00 | 0.01 | 0.01 | 61 | 1012.0 |
| 20260508132002 | 54 | 285 | 1.0 | 3.0 | 0.00 | 0.01 | 0.01 | 63 | 1012.1 |
| 20260508131502 | 53 | 254 | 3.0 | 7.0 | 0.00 | 0.01 | 0.01 | 64 | 1012.2 |
| 20260508130504 | 53 | 358 | 3.0 | 6.0 | 0.00 | 0.01 | 0.01 | 64 | 1012.2 |
| 20260508124503 | 52 | 310 | 1.0 | 5.0 | 0.00 | 0.01 | 0.01 | 65 | 1012.4 |
| 20260508124002 | 52 | 319 | 1.0 | 3.0 | 0.00 | 0.01 | 0.01 | 67 | 1012.4 |
| 20260508123502 | 52 | 255 | 0.0 | 2.0 | 0.00 | 0.01 | 0.01 | 67 | 1012.3 |
| 20260508122503 | 51 | 278 | 1.0 | 3.0 | 0.00 | 0.01 | 0.01 | 69 | 1012.4 |
| 20260508122002 | 51 | 322 | 0.0 | 2.0 | 0.00 | 0.01 | 0.01 | 69 | 1012.3 |
| 20260508121503 | 50 | 244 | 1.0 | 3.0 | 0.00 | 0.01 | 0.01 | 70 | 1012.2 |
| 20260508121003 | 50 | 296 | 0.0 | 2.0 | 0.00 | 0.01 | 0.01 | 70 | 1012.0 |
| 20260508120503 | 49 | 351 | 0.0 | 3.0 | 0.00 | 0.01 | 0.01 | 71 | 1012.0 |
| 20260508120003 | 49 | 241 | 0.0 | 3.0 | 0.00 | 0.01 | 0.01 | 72 | 1012.0 |
| 20260508115003 | 49 | 269 | 0.0 | 2.0 | 0.00 | 0.01 | 0.01 | 73 | 1012.0 |
| 20260508114502 | 48 | 17 | 0.0 | 1.0 | 0.00 | 0.01 | 0.01 | 73 | 1012.0 |
| 20260508114002 | 48 | 270 | 0.0 | 1.0 | 0.00 | 0.01 | 0.01 | 74 | 1012.0 |
| 20260508113502 | 48 | 282 | 0.0 | 1.0 | 0.00 | 0.01 | 0.01 | 74 | 1012.0 |
| 20260508113004 | 48 | 310 | 0.0 | 1.0 | 0.00 | 0.01 | 0.01 | 74 | 1012.0 |
| 20260508112002 | 48 | 315 | 0.0 | 0.0 | 0.00 | 0.01 | 0.01 | 74 | 1011.9 |
| 20260508111502 | 48 | 315 | 0.0 | 0.0 | 0.00 | 0.01 | 0.01 | 74 | 1011.8 |
| 20260508111002 | 47 | 317 | 0.0 | 0.0 | 0.00 | 0.01 | 0.01 | 74 | 1011.9 |
| 20260508110502 | 47 | 17 | 0.0 | 0.0 | 0.00 | 0.01 | 0.01 | 73 | 1011.8 |
| 20260508105502 | 47 | 352 | 0.0 | 0.0 | 0.00 | 0.01 | 0.01 | 73 | 1011.7 |
| 20260508105003 | 48 | 352 | 0.0 | 0.0 | 0.00 | 0.01 | 0.01 | 73 | 1011.6 |
| 20260508104502 | 48 | 352 | 0.0 | 0.0 | 0.00 | 0.01 | 0.01 | 73 | 1011.6 |
| 20260508103503 | 48 | 352 | 0.0 | 0.0 | 0.00 | 0.01 | 0.01 | 73 | 1011.5 |
| 20260508103002 | 48 | 352 | 0.0 | 0.0 | 0.00 | 0.01 | 0.01 | 73 | 1011.4 |
| 20260508102503 | 48 | 352 | 0.0 | 1.0 | 0.00 | 0.01 | 0.01 | 72 | 1011.4 |
| 20260508102003 | 48 | 192 | 0.0 | 1.0 | 0.00 | 0.01 | 0.01 | 72 | 1011.4 |
| 20260508101502 | 48 | 192 | 0.0 | 0.0 | 0.00 | 0.01 | 0.01 | 72 | 1011.2 |
| 20260508101003 | 48 | 193 | 0.0 | 1.0 | 0.00 | 0.02 | 0.01 | 72 | 1011.0 |
| 20260508100502 | 48 | 193 | 0.0 | 2.0 | 0.00 | 0.02 | 0.01 | 72 | 1011.1 |
| 20260508100002 | 48 | 193 | 0.0 | 2.0 | 0.00 | 0.02 | 0.01 | 71 | 1011.2 |
| 20260508095502 | 48 | 192 | 0.0 | 2.0 | 0.00 | 0.02 | 0.01 | 71 | 1011.2 |
| 20260508095002 | 48 | 193 | 0.0 | 0.0 | 0.00 | 0.02 | 0.01 | 71 | 1011.1 |
| 20260508094502 | 48 | 192 | 0.0 | 1.0 | 0.00 | 0.02 | 0.01 | 71 | 1011.1 |
| 20260508094002 | 48 | 191 | 0.0 | 1.0 | 0.00 | 0.02 | 0.01 | 71 | 1011.0 |
| 20260508093503 | 48 | 192 | 0.0 | 2.0 | 0.00 | 0.03 | 0.01 | 71 | 1010.9 |
| 20260508093002 | 48 | 194 | 1.0 | 3.0 | 0.00 | 0.03 | 0.01 | 71 | 1011.0 |
| 20260508092503 | 48 | 192 | 0.0 | 1.0 | 0.00 | 0.03 | 0.01 | 71 | 1011.0 |
| 20260508092002 | 48 | 192 | 0.0 | 1.0 | 0.00 | 0.04 | 0.01 | 71 | 1010.9 |
| 20260508091502 | 48 | 192 | 0.0 | 1.0 | 0.00 | 0.04 | 0.01 | 71 | 1010.9 |
| 20260508090502 | 48 | 191 | 0.0 | 1.0 | 0.00 | 0.04 | 0.01 | 71 | 1010.7 |
| 20260508090003 | 48 | 194 | 0.0 | 0.0 | 0.00 | 0.04 | 0.01 | 71 | 1010.7 |
| 20260508085002 | 48 | 194 | 0.0 | 0.0 | 0.00 | 0.04 | 0.01 | 71 | 1010.7 |
| 20260508084502 | 48 | 194 | 0.0 | 1.0 | 0.00 | 0.04 | 0.01 | 71 | 1010.7 |
| 20260508084002 | 48 | 193 | 0.0 | 1.0 | 0.00 | 0.04 | 0.01 | 70 | 1010.8 |
| 20260508083502 | 48 | 194 | 0.0 | 1.0 | 0.00 | 0.04 | 0.01 | 70 | 1010.7 |
| 20260508083002 | 48 | 194 | 0.0 | 2.0 | 0.00 | 0.04 | 0.01 | 70 | 1010.6 |
| 20260508082503 | 48 | 194 | 0.0 | 2.0 | 0.00 | 0.04 | 0.01 | 71 | 1010.7 |
| 20260508082003 | 48 | 194 | 0.0 | 2.0 | 0.00 | 0.04 | 0.01 | 71 | 1010.7 |
| 20260508081502 | 48 | 193 | 0.0 | 1.0 | 0.00 | 0.05 | 0.01 | 71 | 1010.8 |
| 20260508081003 | 48 | 194 | 0.0 | 2.0 | 0.01 | 0.05 | 0.01 | 70 | 1010.9 |
| 20260508080502 | 48 | 193 | 0.0 | 2.0 | 0.01 | 0.05 | 0.01 | 71 | 1010.9 |
| 20260508080002 | 48 | 194 | 0.0 | 2.0 | 0.01 | 0.06 | 0.01 | 71 | 1010.9 |
| 20260508075502 | 48 | 194 | 0.0 | 2.0 | 0.01 | 0.06 | 0.01 | 71 | 1011.0 |